Hourly Data Report for September 21, 2017

All times are specified in Local Standard Time (LST). Add 1 hour to adjust for Daylight Saving Time where and when it is observed.

SUSSEX FOUR CORNERS
NEW BRUNSWICK

45°44'30.048" N
65°31'44.039" W
47.00 m
8105210
71656
ASF

Download Data

Hourly Data (September 2017)
Hourly Data Report for September 21, 2017
Temp Definition
°C
Dew Point Temp Definition
°C
Rel Hum Definition
%
Wind Dir Definition
10's deg

Wind Spd Definition
km/h
Visibility Definition
km
Stn Press Definition
kPa
Hmdx Definition


Wind Chill Definition


Weather Definition


TIME
00:00 17.3 16.1 92 3 13   101.09     LegendNANA
01:00 16.5 15.0 91 4 10   101.14     LegendNANA
02:00 15.2 14.4 95 2 11   101.12     LegendNANA
03:00 14.4 13.8 96 5 8   101.14     LegendNANA
04:00 13.6 13.1 97 3 12   101.16     LegendNANA
05:00 13.2 12.9 98 5 9   101.21     LegendNANA
06:00 12.2 11.8 98 4 8   101.24     LegendNANA
07:00 12.4 11.8 96 3 11   101.29     LegendNANA
08:00 13.7 12.1 90 3 14   101.33     LegendNANA
09:00 15.4 12.3 82 3 18   101.37     LegendNANA
10:00 17.5 12.8 74 2 18   101.41     LegendNANA
11:00 18.9 12.2 65 2 21   101.39     LegendNANA
12:00 20.4 9.4 49 5 18   101.40     LegendNANA
13:00 20.7 9.3 48 3 21   101.38     LegendNANA
14:00 20.9 8.1 44 5 16   101.37     LegendNANA
15:00 20.4 7.1 42 4 18   101.38     LegendNANA
16:00 19.9 6.5 42 4 14   101.40     LegendNANA
17:00 18.2 6.3 46 3 17   101.44     LegendNANA
18:00 16.1 7.1 55 3 14   101.45     LegendNANA
19:00 14.4 6.8 60 4 14   101.47     LegendNANA
20:00 11.9 6.9 72 3 9   101.54     LegendNANA
21:00 10.4 7.0 80 2 10   101.56     LegendNANA
22:00 10.0 6.9 81 6 5   101.60     LegendNANA
23:00 9.6 7.0 84 6 6   101.62     LegendNANA

Notes on Data Quality.

Legend

  • E = Estimated
  • M = Missing
  • NA = Not Available
  • ‡ = Partner data that is not subject to review by the National Climate Archives
Date modified: